Regional Weather Roundup
Issued by NWS

Home | Current Version | Previous Version | Graphics & Text | Print | Product List | Glossary On
Versions: 1 2 3 4 5 6 7 8 9 10 11 12 13 14 15 16 17 18 19 20 21 22 23 24 25 26 27 28 29 30 31 32 33 34 35 36 37 38 39 40 41 42 43 44 45 46 47 48 49 50
000
ASUS45 KABQ 301610
RWRNM
NEW MEXICO REGIONAL WEATHER ROUNDUP
NATIONAL WEATHER SERVICE ALBUQUERQUE NM
1000 AM MDT SAT MAY 30 2015

NOTE: "FAIR" MEANS FEW OR NO CLOUDS BELOW 12,000 FEET AGL WITH NO
       SIGNIFICANT WEATHER OR OBSTRUCTIONS TO VISION.

      THIS PRODUCT IS RELEASED AS TWO VERSIONS.  ONE VERSION NEAR
      THE TOP OF THE HOUR CONTAINING PRELIMINARY DATA FROM ALBUQUERQUE
      AND OTHER STATIONS.  A FINAL VERSION WITH ADDITIONAL DATA IS
      ISSUED ABOUT 10 MINUTES AFTER THE HOUR.

NMZ501-503-504-510>518-301700-
NORTHWEST PLATEAU/NORTHCENTRAL MOUNTAINS

CITY           SKY/WX    TMP DP  RH WIND       PRES   REMARKS
FARMINGTON     SUNNY     65  39  38 E5        30.26S
LOS ALAMOS     PTSUNNY   56  44  63 S10       30.40F
SANTA FE       PTSUNNY   62  42  47 S14       30.36S
TAOS           SUNNY     59  39  47 CALM      30.39F
ANGEL FIRE     PTSUNNY   54  38  54 SW6       30.42F

$$
NMZ402-403-502-505>509-301700-
WESTCENTRAL MOUNTAINS/SOUTHWEST MOUNTAINS

CITY           SKY/WX    TMP DP  RH WIND       PRES   REMARKS
GALLUP         SUNNY     69  27  20 NE8       30.31S
GRANTS         SUNNY     65  42  41 SE12G21   30.35R
SILVER CITY      N/A     77  37  24 SE18G25   30.24S

$$
NMZ407-409-411-412-301700-
SOUTHERN DESERTS

CITY           SKY/WX    TMP DP  RH WIND       PRES   REMARKS
LORDSBURG      FAIR      79  34  19 E14       30.16S
DEMING         SUNNY     77  46  33 E16G33    30.19R
LAS CRUCES     SUNNY     77  49  38 SE8       30.21S
HOLLOMAN AFB   SUNNY     76  47  35 S7        30.18R
ALAMOGORDO     SUNNY     75  46  35 SW9       30.20R
T OR C         SUNNY     71  47  42 N16G25    30.24R

$$
NMZ519>523-301700-
CENTRAL VALLEYS/CENTRAL HIGHLANDS

CITY           SKY/WX    TMP DP  RH WIND       PRES   REMARKS
ALBUQUERQUE    MOSUNNY   68  45  43 SE13      30.30S
DOUBLE EAGLE   MOSUNNY   64  48  55 E12G17    30.33S
MORIARTY ARPT  CLOUDY    60  44  57 SE9       30.38S
CLINES CORNERS PTSUNNY   57  44  62 SE13      30.38S
BELEN          FAIR      68  43  40 W5        30.29S
SOCORRO        FAIR      68  46  45 CALM      30.28S

$$
NMZ524>526-539-540-301700-
SOUTHCENTRAL MOUNTAINS

CITY           SKY/WX    TMP DP  RH WIND       PRES   REMARKS
RUIDOSO        MOSUNNY   55  45  67 SE13      30.41R

$$
NMZ527>531-301700-
NORTHEAST HIGHLANDS/NORTHEAST PLAINS

CITY           SKY/WX    TMP DP  RH WIND       PRES   REMARKS
LAS VEGAS      PTSUNNY   57  44  62 VRB6      30.38F
RATON          SUNNY     58  44  60 S5        30.33F
CLAYTON        CLOUDY    57  47  69 NE9       30.33S

$$
NMZ532>537-301700-
EASTCENTRAL PLAINS

CITY           SKY/WX    TMP DP  RH WIND       PRES   REMARKS
TUCUMCARI      CLOUDY    58  50  75 E12       30.32S
CANNON AFB     MOSUNNY   60  52  74 NE17      30.29S
CLOVIS AIRPORT MOSUNNY   61  52  72 NE18      30.29S

$$
NMZ028-029-538-301700-
SOUTHEAST PLAINS

CITY           SKY/WX    TMP DP  RH WIND       PRES   REMARKS
ROSWELL        CLOUDY    66  54  65 NE10      30.27S
ARTESIA        PTSUNNY   66  57  72 N12       30.26S
CARLSBAD       SUNNY     73  55  53 N10       30.23R
HOBBS          MOSUNNY   64  59  82 NE14      30.25S


$$


USA.gov is the U.S. government's official web portal to all federal, state and local government web resources and services.